[[{"header":{"parameterUnit":"m.s-1","parameterCategory":1,"la1":30.2991,"la2":30.254,"lo1":-89.0895,"lo2":-89.0444,"dy":0.0017,"dx":0.0017,"nx":28,"ny":28,"refTime":"2025-07-21T09:00:00:Z","depth":0,"parameterNumber":2,"parameterNumberName":"U-component_of_WINDS"},"data":[0,0,0,0,0,0,0,0,0,0,0,0,0,0,0,0,0,0,0,0,0,0,0,0,0,0,0,0,0,0,0,0,0,0,0,0,0,0,0,0,0,0,0,0,0,0,0,0,0,0,0,0,0,0,0,0,0,0,2.773,2.7731,0,2.7859,2.7861,2.7862,2.7825,2.7822,2.7819,2.7817,2.7952,2.7958,2.7964,0,0,0,0,0,0,0,0,0,0,0,0,0,2.7452,2.7457,2.773,2.7732,2.7733,2.7859,2.7861,2.7863,2.7825,2.7822,2.7819,2.7816,2.795,2.7957,2.7964,0,0,0,0,0,0,0,0,0,0,0,0,0,2.7576,2.7459,2.773,2.773,2.7731,2.7859,2.7861,2.7863,2.7826,2.7822,2.7818,2.7814,2.7947,2.7956,2.7965,2.8102,0,0,2.7993,2.7997,0,0,0,0,0,0,0,0,2.7569,2.7586,2.7728,2.773,2.7731,2.7822,2.7812,2.7943,2.7827,2.779,2.7817,2.7812,2.7912,2.7924,2.7957,2.8108,2.8114,2.7994,2.7999,2.8003,2.8006,0,0,0,0,0,0,0,2.756,2.758,2.7781,2.773,2.7732,2.7723,2.7737,2.7837,2.7872,2.7793,2.779,2.7806,2.7912,2.7948,2.796,2.8116,2.7994,2.8002,2.8007,2.8011,2.8384,2.8388,0,0,0,0,0,0,2.755,2.7574,2.7777,2.7785,2.7639,2.7732,2.7746,2.7797,2.7871,2.7878,2.7809,2.7804,2.7934,2.7949,2.7964,2.8127,2.8003,2.8012,2.8017,2.8379,2.8385,2.839,0,0,0,0,0,0,2.7544,2.7569,2.7772,2.7679,2.7704,2.7741,2.7798,2.7801,2.7837,2.7883,2.7889,2.784,2.7932,2.7951,2.8067,2.8132,2.8016,2.8024,2.8374,2.8381,2.8387,2.8456,0,0,0,0,0,0,2.7537,2.7567,2.7619,2.768,2.7709,2.7872,2.7802,2.7807,2.7853,2.7847,2.7913,2.792,2.793,2.8054,2.8076,2.8142,2.8031,2.8369,2.8377,2.8385,2.8448,2.8464,2.8478,0,0,0,0,0,2.7527,2.7634,2.7622,2.7647,2.7775,2.7876,2.7893,2.7901,2.7858,2.7911,2.794,2.7918,2.8121,2.8066,2.8091,2.816,2.8365,2.8375,2.8384,2.8441,2.8461,2.8477,0,0,0,0,0,0,2.7581,2.7642,2.7629,2.776,2.7813,2.787,2.7936,2.7922,2.7989,2.7981,2.799,2.8005,2.8123,2.8154,2.8091,2.8296,2.8237,2.8252,2.8271,2.829,2.8305,2.8294,2.8039,0,0,0,0,0,2.7608,2.7685,2.7734,2.7844,2.7872,2.79,2.7944,2.7946,2.8002,2.8024,2.8062,2.8118,2.8194,2.8244,2.8317,2.8452,2.8465,2.8512,2.8527,2.8539,2.8552,2.8624,2.8645,2.8422,2.8422,2.8422,0,0,2.7665,2.7708,2.7756,2.7856,2.7898,2.7977,2.7919,2.8006,2.8065,2.8038,2.8149,2.8178,2.8241,2.8367,2.8424,2.8396,2.8617,2.8552,2.8561,2.8568,2.8637,2.8658,2.8677,2.8429,2.8428,2.8427,0,0,2.7808,2.7849,2.7944,2.7986,2.8049,2.8067,2.809,2.8149,2.8167,2.8278,2.8259,2.833,2.8461,2.8506,2.8546,2.8705,2.8687,2.8729,2.8806,2.8876,2.8894,2.8909,2.8964,2.8984,2.8742,2.8742,2.8742,0,2.7871,2.7989,2.7995,2.8083,2.8127,2.8106,2.8202,2.8243,2.8327,2.8358,2.8325,2.8488,2.8529,2.8664,2.8702,2.8736,2.8762,2.8721,2.8891,2.8906,2.8921,2.8973,2.8994,2.8746,2.8746,2.8745,2.8745,0,2.8062,2.8144,2.8214,2.8293,2.8346,2.8438,2.8458,2.851,2.8507,2.8528,2.8641,2.8689,2.877,2.8803,2.8802,2.8938,2.8918,2.8888,2.8828,2.8947,2.8996,2.9016,2.8753,2.8751,2.875,2.8749,0,0,2.8243,2.8324,2.835,2.8385,2.8452,2.8516,2.8607,2.8685,2.8729,2.8788,2.8863,2.8974,2.8946,2.8991,2.8995,2.9057,2.9177,2.9019,2.9021,2.9045,2.9328,2.9349,2.9372,2.9166,2.917,2.9173,2.9322,0,2.8391,2.8549,2.8557,2.87,2.8776,2.8756,2.8834,2.8884,2.8906,2.8973,2.8998,2.9076,2.9034,2.9061,2.9121,2.915,2.9234,2.914,2.9236,2.9239,2.9219,2.9398,2.9421,2.9559,2.9342,2.9345,2.9348,0,2.8585,2.8647,2.8798,2.8853,2.8885,2.8955,2.9027,2.9092,2.9147,2.9159,2.9209,2.9203,2.9296,2.9234,2.9361,2.9296,2.9336,2.9356,2.9362,2.937,2.93,2.941,2.9604,2.9624,2.9378,2.9376,2.9374,0,2.87,2.8822,2.8927,2.8959,2.9026,2.9075,2.9106,2.9158,2.9204,2.9266,2.9296,2.9369,2.9409,2.9466,2.948,2.9434,2.9607,2.9546,2.9618,2.9618,2.9654,2.9652,2.9856,2.9683,2.9683,2.9682,2.9682,0,2.8863,2.8956,2.898,2.9044,2.9147,2.9155,2.9257,2.9284,2.933,2.94,2.9388,2.9454,2.9469,2.9538,2.955,2.9652,2.9671,2.9682,2.9684,2.9682,2.9681,2.9708,2.9698,2.9688,2.9686,2.9685,2.9684,0,2.9008,2.9028,2.9142,2.9195,2.9211,2.9284,2.933,2.9392,2.9412,2.95,2.9522,2.9554,2.9634,2.9653,2.975,2.9757,2.9878,2.9871,2.9858,2.9857,2.9927,2.992,3.0155,3.0185,2.9994,2.9996,2.9997,0,2.9111,2.9181,2.9242,2.9287,2.9319,2.9392,2.9438,2.9449,2.9498,2.9566,2.962,2.9698,2.9761,2.989,2.9922,2.9995,2.9989,3.0066,3.0,2.9995,2.9988,2.9983,2.9989,3.0078,3.008,3.0082,3.0084,0,2.9289,2.9295,2.9362,2.9432,2.9487,2.9543,2.9596,2.9634,2.9652,2.9707,2.9788,2.9837,2.9934,3.0011,3.0085,3.0116,3.0103,3.0104,3.0124,3.0123,3.0111,3.0116,2.9891,3.0099,3.0097,3.0096,3.0095,3.0095,2.9415,2.9476,2.9528,2.9602,2.9643,2.9692,2.9753,2.9779,2.9847,2.9925,2.9928,3.0016,3.0069,3.0165,3.0201,3.027,3.0246,3.0276,3.0283,3.029,3.0295,3.0102,3.0284,3.0283,3.0283,3.0282,3.0282,0,2.9592,2.9623,2.9692,2.9766,2.9824,2.9805,2.9863,2.9913,2.999,3.004,3.0102,3.0194,3.0269,3.0306,3.038,3.0428,3.0423,3.0447,3.0443,3.045,3.0313,3.0287,3.0449,3.0449,3.0449,3.0449,3.0449,3.0449,2.969,2.9791,2.9803,2.9924,2.9956,3.0041,3.0075,3.012,3.016,3.0263,3.0325,3.0348,3.0393,3.047,3.0537,3.0546,3.0573,3.06,3.0605,3.0477,3.046,3.0443,3.0419,3.0606,3.0606,3.0736,3.0737,3.0738]},{"header":{"parameterUnit":"m.s-1","parameterCategory":1,"la1":30.2991,"la2":30.254,"lo1":-89.0895,"lo2":-89.0444,"dy":0.0017,"dx":0.0017,"nx":28,"ny":28,"refTime":"2025-07-21T09:00:00:Z","depth":0,"parameterNumber":3,"parameterNumberName":"V-component_of_WINDS"},"data":[0,0,0,0,0,0,0,0,0,0,0,0,0,0,0,0,0,0,0,0,0,0,0,0,0,0,0,0,0,0,0,0,0,0,0,0,0,0,0,0,0,0,0,0,0,0,0,0,0,0,0,0,0,0,0,0,0,0,-0.0026,-0.0026,0,-0.0045,-0.0045,-0.0045,-0.0083,-0.0084,-0.0084,-0.0085,-0.0103,-0.0103,-0.0102,0,0,0,0,0,0,0,0,0,0,0,0,0,-0.0024,-0.0024,-0.0026,-0.0026,-0.0027,-0.0044,-0.0045,-0.0045,-0.0083,-0.0084,-0.0084,-0.0085,-0.0103,-0.0103,-0.0102,0,0,0,0,0,0,0,0,0,0,0,0,0,-0.0032,-0.0024,-0.0026,-0.0048,-0.005,-0.0044,-0.0045,-0.0045,-0.0082,-0.0084,-0.0085,-0.0086,-0.0103,-0.0103,-0.0102,-0.0077,0,0,-0.0101,-0.0101,0,0,0,0,0,0,0,0,-0.0032,-0.0032,-0.0044,-0.0046,-0.0049,-0.0063,-0.0051,-0.0056,-0.0082,-0.007,-0.0085,-0.0086,-0.0088,-0.0089,-0.009,-0.0078,-0.0079,-0.0101,-0.0101,-0.0101,-0.0101,0,0,0,0,0,0,0,-0.0031,-0.0031,-0.0033,-0.0044,-0.0047,-0.0056,-0.0059,-0.0052,-0.0073,-0.0071,-0.0074,-0.0076,-0.009,-0.009,-0.0091,-0.0079,-0.0101,-0.0101,-0.0101,-0.01,-0.0049,-0.0048,0,0,0,0,0,0,-0.0027,-0.0031,-0.0033,-0.0034,-0.0043,-0.0056,-0.0058,-0.0057,-0.0073,-0.0076,-0.0075,-0.0077,-0.0091,-0.0091,-0.0092,-0.0064,-0.0101,-0.01,-0.01,-0.005,-0.0048,-0.0047,0,0,0,0,0,0,-0.0027,-0.0027,-0.0032,-0.0033,-0.0035,-0.0054,-0.0053,-0.0057,-0.0057,-0.0075,-0.0079,-0.0071,-0.0091,-0.0092,-0.0081,-0.0065,-0.01,-0.01,-0.0051,-0.0049,-0.0048,-0.0008,0,0,0,0,0,0,-0.0027,-0.0027,-0.0017,-0.0033,-0.0034,-0.0021,-0.0052,-0.0056,-0.0057,-0.006,-0.0073,-0.0077,-0.0092,-0.0081,-0.0081,-0.0065,-0.01,-0.0053,-0.005,-0.0048,-0.0011,-0.0005,-0.0,0,0,0,0,0,-0.0027,-0.0005,-0.0017,-0.0017,-0.0023,-0.002,-0.0021,-0.0039,-0.0055,-0.0046,-0.0058,-0.0076,-0.0067,-0.008,-0.0079,-0.0064,-0.0054,-0.0051,-0.0048,-0.0013,-0.0006,-0.0,0,0,0,0,0,0,0.0014,-0.0007,-0.002,-0.0003,-0.0009,-0.0026,-0.0015,-0.0031,-0.0033,-0.0036,-0.0059,-0.0062,-0.0048,-0.0055,-0.0068,-0.0041,-0.0063,-0.0061,-0.0037,-0.003,-0.0025,-0.0023,-0.0099,0,0,0,0,0,0.0024,0.0028,0.001,0.0027,0.0025,0.0005,0.0006,-0.0008,-0.0015,-0.0018,-0.0029,-0.0035,-0.0034,-0.0033,-0.0032,-0.0012,-0.0016,-0.0001,0.0004,0.0008,0.0011,0.0021,0.0027,-0.0038,-0.0039,-0.0039,0,0,0.0047,0.0036,0.004,0.0035,0.0028,0.0033,0.0004,0.001,0.0013,-0.0017,-0.0007,-0.0016,-0.0024,-0.0009,-0.0002,-0.0014,0.0028,0.0012,0.0015,0.0016,0.0024,0.003,0.0036,-0.0037,-0.0037,-0.0037,0,0,0.0091,0.0083,0.0096,0.0089,0.008,0.0066,0.0069,0.0055,0.0048,0.0057,0.0034,0.0038,0.0041,0.0035,0.0033,0.0072,0.0055,0.0073,0.0101,0.011,0.0116,0.012,0.0134,0.0139,0.0076,0.0076,0.0076,0,0.012,0.0126,0.0105,0.0112,0.0111,0.0082,0.0095,0.009,0.0081,0.008,0.0067,0.0069,0.0061,0.0075,0.0085,0.0084,0.0086,0.0075,0.0117,0.0121,0.0125,0.0138,0.0143,0.0078,0.0078,0.0078,0.0078,0,0.0163,0.0167,0.0179,0.017,0.0169,0.018,0.016,0.0161,0.0147,0.0135,0.0145,0.0134,0.0131,0.0133,0.0119,0.0144,0.0137,0.0121,0.0098,0.0133,0.0145,0.015,0.0081,0.0081,0.008,0.0079,0,0,0.0233,0.0211,0.0215,0.0211,0.0197,0.02,0.0208,0.0205,0.0207,0.0201,0.0208,0.021,0.0194,0.0191,0.0176,0.0185,0.0216,0.0167,0.0166,0.0176,0.0243,0.0256,0.0262,0.0204,0.0205,0.0206,0.0243,0,0.0274,0.0287,0.0267,0.0285,0.0289,0.0261,0.0268,0.0261,0.0249,0.0251,0.0238,0.024,0.0219,0.0217,0.0224,0.0211,0.0229,0.0208,0.021,0.0211,0.0214,0.0268,0.0282,0.0318,0.0248,0.0249,0.0249,0,0.0323,0.0319,0.0337,0.0321,0.0322,0.0329,0.0324,0.0325,0.0315,0.0307,0.0303,0.0285,0.0292,0.0269,0.0277,0.0263,0.0263,0.0257,0.0257,0.0258,0.0233,0.027,0.0329,0.0335,0.0256,0.0256,0.0255,0,0.0372,0.0371,0.0382,0.0378,0.036,0.0366,0.0358,0.0347,0.0346,0.0341,0.034,0.0337,0.0335,0.0332,0.0313,0.0298,0.0324,0.03,0.0317,0.0318,0.0325,0.0325,0.0385,0.0324,0.0324,0.0324,0.0323,0,0.042,0.0433,0.0403,0.041,0.0422,0.0399,0.0412,0.0402,0.0392,0.0396,0.0372,0.0376,0.035,0.0352,0.0337,0.0346,0.0345,0.0338,0.0334,0.0341,0.0342,0.0341,0.0338,0.0325,0.0325,0.0324,0.0324,0,0.0478,0.0459,0.0468,0.045,0.0445,0.0455,0.0439,0.0444,0.0431,0.0436,0.0435,0.0415,0.0415,0.0395,0.0391,0.0381,0.0397,0.0388,0.04,0.0398,0.0416,0.0415,0.0479,0.0486,0.042,0.042,0.0421,0,0.051,0.0518,0.05,0.0501,0.0494,0.0496,0.0494,0.0471,0.0471,0.0459,0.0466,0.0463,0.0461,0.0462,0.0446,0.0443,0.0434,0.0456,0.0433,0.0439,0.0434,0.0434,0.0435,0.0462,0.0463,0.0463,0.0464,0,0.0569,0.0559,0.0557,0.0552,0.0551,0.0546,0.0539,0.0541,0.0516,0.0516,0.0516,0.0513,0.0509,0.0507,0.05,0.0492,0.0474,0.0471,0.0475,0.0482,0.0488,0.0485,0.0414,0.047,0.0469,0.0469,0.0468,0.0468,0.0615,0.0621,0.0608,0.0607,0.06,0.0594,0.0598,0.0584,0.0583,0.0577,0.0564,0.0565,0.0554,0.0543,0.0537,0.0537,0.0526,0.0532,0.0533,0.0535,0.0538,0.0488,0.0536,0.0536,0.0536,0.0535,0.0535,0,0.0672,0.0663,0.0662,0.0653,0.0652,0.0634,0.0625,0.0626,0.0627,0.0618,0.0615,0.0614,0.0612,0.0595,0.0591,0.0595,0.0586,0.0594,0.0594,0.0593,0.0549,0.0546,0.0601,0.0601,0.0601,0.0601,0.0601,0.0601,0.0702,0.0711,0.0699,0.0704,0.0694,0.0695,0.0692,0.0686,0.0679,0.0678,0.0676,0.0665,0.0653,0.0647,0.0644,0.0639,0.0639,0.065,0.0643,0.0602,0.0596,0.059,0.0587,0.065,0.065,0.0686,0.0687,0.0687]}]]